sat.trackr.live / text

‹ back to catalog

STARLINK-32490

NORAD 62126 · 2024-222N

PAYLOAD ACTIVE UNKNOWN

§ Identity

Operator
Country
US
Launch date
2024-11-27
Launch site
AFETR
Launch vehicle
Mass (kg)
RCS (m²)

Purposes: comms

External: N2YO · Heavens-Above · Gunter

§ Orbital elements

Epoch: 2026-05-25T03:09:56.357856Z

Period
94.27 min
Inclination
42.9985°
Eccentricity
0.0001129
Mean motion
15.27585809 rev/d
Perigee alt
482.3 km
Apogee alt
483.8 km
Semi-major
6,861.2 km
B*
1.5293e-3
RAAN
64.1500°
Arg perigee
256.4142°
Mean anomaly
103.6584°
Rev number
8,444

§ Raw data

STARLINK-324901 62126U 24222N   26145.13190229  .00042069  00000+0  15293-2 0  99962 62126  42.9985  64.1500 0001129 256.4142 103.6584 15.27585809 84446

JSON: /api/v1/satellites/62126 · /tle

For live sub-satellite position, see the globe view (requires WebGL).

§ Visibility from observer

Set your observer location to see the next 7 days of passes ≥ 10°. The values pass through the URL so the page stays shareable.

No JS? Fill the form by hand. The geolocation button needs JavaScript.